Location: *
(40.7190°N, 4.2480°W)
Time: 03:29:47
(UTC+00:00)

Daily predictions for brighter satellites

Satellite Brightness Start Highest point End
(mag) Time Altitude Azimuth Time Altitude Azimuth Time Altitude Azimuth
Cosmos 2237 Rocket 4.5 03:48:41 16° NNE 03:48:41 16° NNE 03:49:45 10° NNE
Lacrosse 5 4.3 03:47:37 17° NE 03:47:37 17° NE 03:49:51 10° ENE
NOSS 3-1 (C) 4.2 03:53:58 72° ENE 03:53:58 72° ENE 04:02:27 10° SE
CZ-4C R/B 4.2 04:02:10 20° NNE 04:02:10 20° NNE 04:04:17 10° NNE
CZ-2C R/B 4.2 03:56:02 10° NNE 03:59:16 30° ENE 03:59:16 30° ENE
Cosmos 1934 Rocket 4.2 04:11:11 10° N 04:18:50 55° SE 04:23:49 10° SSE
Cosmos 1943 Rocket 4.1 04:13:23 10° N 04:17:56 25° NE 04:22:26 10° ESE
USA 215 4.4 04:17:51 10° NE 04:22:54 29° NNW 04:22:54 29° NNW
Cosmos 2297 4.3 04:26:08 48° SE 04:26:08 48° SE 04:30:14 10° SSE
SL-16 R/B 2.9 04:28:22 47° NNE 04:28:22 47° NNE 04:32:20 10° NNE
Cosmos 1605 Rocket 4.2 04:33:27 10° N 04:39:40 67° E 04:45:45 10° SSE
USA 229 DEB 3.8 04:41:12 64° WSW 04:41:17 64° WSW 04:48:48 10° SSE
USA 229 3.8 04:41:15 65° WSW 04:41:23 65° WSW 04:48:53 10° SSE
Cosmos 2369 Rocket 3.9 04:37:20 10° N 04:42:25 32° ENE 04:47:29 10° ESE
Gbstr 26 Del rocket 4.4 04:42:56 57° SW 04:42:56 57° SW 04:50:31 10° SSE
NOSS 3-1 (A) 4.0 04:44:10 32° NW 04:48:22 85° WSW 04:57:07 10° SSE
USA 267 3.9 04:49:49 10° SSE 04:54:32 35° SSW 04:54:32 35° SSW
Meteor 2-3 Rocket 4.1 04:53:26 10° N 04:59:10 65° E 05:04:54 10° SSE
Cosmos 1992 Rocket 3.8 04:59:41 73° WNW 04:59:58 75° WSW 05:05:10 10° SSE
Cosmos 1727 Rocket 4.1 04:57:16 10° S 05:03:25 74° E 05:09:35 10° N
STARLINK-1063 4.4 05:04:56 42° SSE 05:04:56 42° SSE 05:07:50 10° SE
Cosmos 2251 Rocket 4.2 05:08:58 37° NW 05:08:58 37° NW 05:12:53 10° N
Cosmos 1484 Rocket 3.1 05:04:30 10° NNE 05:08:25 66° E 05:11:06 20° S
STARLINK-1064 4.3 05:09:41 43° S 05:09:41 43° S 05:12:44 10° SE
Cosmos 1339 Rocket 4.3 05:08:03 26° SSW 05:11:32 62° W 05:17:35 10° N
STARLINK-1041 4.2 05:14:29 43° S 05:14:29 43° S 05:17:40 10° SSE
STARLINK-1038 4.2 05:19:16 41° SSW 05:19:16 41° SSW 05:22:34 10° SSE
Cosmos 1500 Rocket 3.8 05:15:38 10° N 05:20:05 70° E 05:24:27 10° SSE
CZ-4B R/B 3.0 05:17:31 10° N 05:20:20 48° NNW 05:20:20 48° NNW
ATLAS CENTAUR R/B 3.3 05:22:30 19° NNW 05:22:30 19° NNW 05:24:42 10° N
Cosmos 292 Rocket 3.8 05:22:40 49° W 05:22:54 50° WSW 05:27:28 10° S
PSLV R/B 4.1 05:19:40 10° NNE 05:23:23 62° E 05:27:09 10° S
STARLINK-1046 4.2 05:24:03 39° SSW 05:24:03 39° SSW 05:27:29 10° SSE
Meteor 1-27 4.1 05:19:28 10° S 05:25:02 82° W 05:30:37 10° N
Okean O Rocket 3.7 05:22:17 10° NE 05:26:05 28° E 05:29:50 10° SSE
STARLINK-1128 4.5 05:26:06 23° SSW 05:28:13 45° SE 05:32:03 10° ENE
STARLINK-1039 4.3 05:28:50 36° SW 05:28:50 36° SW 05:32:22 10° SSE
Cosmos 2237 Rocket 4.3 05:30:31 11° NNW 05:30:31 11° NNW 05:31:09 10° NNW
Cosmos 2100 Rocket 4.4 05:23:09 10° N 05:29:21 66° E 05:35:26 10° SSE
Lacrosse 5 2.1 05:26:50 22° NW 05:30:04 67° NE 05:35:06 10° SE
Cosmos 1743 Rocket 3.4 05:27:34 10° N 05:31:54 78° W 05:36:13 10° S
STARLINK-1113 4.3 05:30:22 22° SSW 05:32:40 49° SE 05:36:31 10° ENE
STARLINK-1102 4.4 05:30:20 21° SSW 05:32:45 48° SE 05:36:39 10° ENE
H-2A R/B 2.9 05:28:36 10° N 05:32:47 45° WNW 05:34:00 36° WSW
STARLINK-1118 3.1 05:33:41 51° NE 05:33:41 51° NE 05:35:42 10° NE
STARLINK-1045 4.4 05:33:36 33° SW 05:33:36 33° SW 05:37:12 10° SSE
STARLINK-1070 2.5 05:35:37 83° SW 05:35:43 90° S 05:38:39 10° NE
Meteor 1-31 Rocket 4.0 05:32:43 10° N 05:34:47 25° NNW 05:34:47 25° NNW
GEOS 3 Rocket 4.0 05:31:13 10° NNE 05:36:16 45° NW 05:38:30 29° W
STARLINK-1124 2.6 05:36:35 69° NNW 05:36:35 69° NNW 05:39:25 10° NE
STARLINK-1066 2.5 05:36:41 80° WSW 05:36:48 87° NW 05:39:44 10° NE
STARLINK-1119 4.1 05:34:35 21° SSW 05:37:02 54° SE 05:40:57 10° ENE
STARLINK-1081 2.5 05:36:55 79° WSW 05:37:03 87° NW 05:39:59 10° NE
STARLINK-1111 4.2 05:34:53 20° SSW 05:37:28 53° SE 05:41:24 10° ENE
STARLINK-1069 2.5 05:37:20 78° WSW 05:37:29 86° NW 05:40:25 10° NE
STARLINK-1085 2.5 05:37:33 77° WSW 05:37:44 86° NW 05:40:39 10° NE
STARLINK-1086 2.5 05:37:46 76° WSW 05:37:57 85° NW 05:40:53 10° NE
STARLINK-1095 2.5 05:37:59 76° WSW 05:38:10 85° NW 05:41:06 10° NE
STARLINK-1077 2.5 05:38:12 75° WSW 05:38:24 84° NW 05:41:19 10° NE
STARLINK-1075 2.5 05:38:25 74° WSW 05:38:37 84° NW 05:41:33 10° NE
ADEOS Rocket 4.3 05:32:55 10° SE 05:38:41 44° ENE 05:45:04 10° N
CZ-2C R/B 3.4 05:34:32 10° N 05:38:40 27° WNW 05:38:40 27° WNW
STARLINK-1093 2.5 05:38:38 74° WSW 05:38:50 83° NW 05:41:46 10° NE
STARLINK-1074 2.5 05:38:51 73° WSW 05:39:04 83° NW 05:41:59 10° NE
STARLINK-1087 2.5 05:39:05 72° WSW 05:39:18 82° NW 05:42:14 10° NE
STARLINK-1088 2.5 05:39:17 72° WSW 05:39:31 82° NW 05:42:26 10° NE
STARLINK-1115 2.5 05:39:30 71° WSW 05:39:44 81° NW 05:42:40 10° NE
STARLINK-1076 2.5 05:39:43 70° WSW 05:39:58 81° NW 05:42:54 10° NE
STARLINK-1092 2.5 05:39:56 69° WSW 05:40:12 80° NW 05:43:07 10° NE
STARLINK-1080 2.5 05:40:09 69° W 05:40:25 80° NW 05:43:21 10° NE
STARLINK-1090 2.5 05:40:22 68° W 05:40:39 79° NW 05:43:34 10° NE
STARLINK-1089 2.5 05:40:35 67° W 05:40:52 79° NW 05:43:48 10° NE
STARLINK-1107 2.5 05:40:48 67° W 05:41:05 78° NW 05:44:01 10° NE
STARLINK-1109 2.5 05:40:59 66° W 05:41:17 78° NW 05:44:13 10° NE
STARLINK-1114 4.0 05:38:54 20° SSW 05:41:31 59° SE 05:45:27 10° ENE
STARLINK-1091 2.5 05:41:14 65° W 05:41:33 77° NW 05:44:29 10° NE
STARLINK-1072 2.5 05:41:27 65° W 05:41:47 77° NW 05:44:42 10° NE
STARLINK-1096 2.5 05:41:41 65° W 05:42:00 76° NW 05:44:55 10° NE
STARLINK-1073 4.0 05:39:21 19° SSW 05:42:06 59° SE 05:46:05 10° ENE
STARLINK-1079 2.5 05:41:53 63° W 05:42:13 76° NW 05:45:09 10° NE
Cosmos 1842 Rocket 4.0 05:40:14 24° SW 05:42:24 39° WNW 05:46:38 10° N
STARLINK-1116 2.5 05:42:06 63° W 05:42:27 76° NW 05:45:23 10° NE
STARLINK-1094 2.5 05:42:32 62° W 05:42:53 75° NW 05:45:49 10° NE
STARLINK-1117 2.5 05:42:44 61° W 05:43:07 74° NW 05:46:02 10° NE
STARLINK-1078 2.5 05:42:57 60° W 05:43:21 74° NW 05:46:16 10° NE
STARLINK-1108 2.5 05:43:10 60° W 05:43:33 73° NW 05:46:29 10° NE
STARLINK-1071 2.5 05:43:24 60° W 05:43:47 73° NW 05:46:43 10° NE
STARLINK-1110 2.5 05:43:37 59° W 05:44:01 73° NW 05:46:57 10° NE
STARLINK-1122 2.6 05:44:02 57° W 05:44:28 72° NW 05:47:23 10° NE
STARLINK-1126 2.6 05:44:15 57° W 05:44:41 71° NW 05:47:37 10° NE
STARLINK-1082 2.6 05:44:28 56° W 05:44:55 71° NW 05:47:50 10° NE
STARLINK-1100 2.6 05:44:41 56° W 05:45:08 70° NW 05:48:03 10° NE
STARLINK-1083 2.6 05:44:54 55° W 05:45:22 70° NW 05:48:18 10° NE
STARLINK-1125 2.6 05:45:08 55° W 05:45:36 70° NW 05:48:31 10° NE
Cosmos 1459 Rocket 4.1 05:39:31 10° N 05:45:44 82° E 05:52:00 10° S
STARLINK-1130 (DARKSAT) 3.8 05:43:06 18° SW 05:45:53 65° SE 05:49:51 10° ENE
STARLINK-1121 3.9 05:43:46 17° SW 05:46:42 65° SE 05:50:42 10° ENE
Shenzhou-11 Module 2.0 05:46:59 44° SSW 05:47:30 57° SSE 05:50:07 10° E
CZ-4C R/B 4.3 05:47:22 10° NW 05:49:21 12° NNW 05:51:27 10° N
METEOR-M 4.0 05:44:52 10° N 05:50:13 76° WNW 05:55:32 10° SSW
STARLINK-1084 3.7 05:47:22 17° SW 05:50:20 71° SE 05:54:19 10° NE
Cosmos 1400 Rocket 4.4 05:47:35 10° SSE 05:51:17 39° E 05:55:05 10° NNE
STARLINK-1106 3.7 05:48:18 16° SW 05:51:24 71° SE 05:55:26 10° NE
Cosmos 1869 3.3 05:49:16 10° SSW 05:53:12 59° W 05:57:09 10° N
Cosmos 407 Rocket 3.5 05:48:59 10° SSW 05:54:15 62° WNW 05:59:31 10° NNE
STARLINK-1112 3.6 05:52:53 15° SW 05:56:11 78° SE 06:00:14 10° NE
Cosmos 1140 Rocket 3.4 05:53:00 10° SSW 05:58:14 80° WNW 06:03:31 10° NNE
COSMO-SKYMED 1 2.7 05:54:28 10° S 05:58:40 49° W 06:02:54 10° NNW
ALOS 2.3 05:54:29 10° N 05:59:02 53° WNW 06:03:34 10° SSW
USA 116 3.1 05:55:51 10° SSE 05:59:07 87° ENE 06:02:14 10° NNW
Cosmos 921 Rocket 3.0 05:57:14 10° NNW 06:01:41 85° WSW 06:06:00 10° SSE
Cosmos 1943 Rocket 2.4 05:56:38 10° NW 06:01:52 46° WSW 06:07:05 10° S
Cosmos 1802 Rocket 4.1 05:56:55 10° N 06:03:23 89° W 06:09:49 10° S
SJ-12 4.3 06:01:04 10° N 06:04:57 41° WNW 06:08:50 10° SW
Cosmos 1633 Rocket 4.5 06:03:30 10° N 06:07:39 41° ENE 06:11:48 10° SSE
Cosmos 2221 3.4 06:05:43 10° SW 06:09:17 26° WNW 06:12:52 10° NNW
Cosmos 1666 Rocket 4.4 06:05:00 10° N 06:09:22 54° E 06:13:39 10° SSE
SL-16 R/B 3.9 06:10:16 13° WNW 06:11:39 14° NW 06:14:33 10° NNW
Helios 1A Rocket 3.4 06:11:10 10° NNE 06:15:18 67° ESE 06:19:24 10° S
MOS 1-B 4.4 06:09:48 10° N 06:15:28 56° WNW 06:21:07 10° SSW
Cosmos 1190 Rocket 4.3 06:12:19 10° SW 06:17:21 45° WNW 06:22:26 10° N
Aureole 2 Rocket 2.6 06:15:30 10° NW 06:18:23 39° WSW 06:21:24 10° S
FENGYUN 3A 4.1 06:16:36 10° N 06:21:38 39° WNW 06:26:38 10° SW
DMSP B5D1-3 4.5 06:17:31 10° S 06:22:35 73° WSW 06:27:41 10° NNW
H-2A R/B 3.0 06:20:39 10° NNE 06:24:24 70° E 06:28:05 10° S
Cosmos 2369 Rocket 2.7 06:21:14 10° NW 06:26:29 38° WSW 06:31:40 10° S
BREEZE-M DEB (TANK) 3.4 06:22:54 10° SW 06:26:30 86° SE 06:33:01 10° ENE
Cosmos 1603 4.4 06:22:08 10° WSW 06:27:12 32° WNW 06:32:17 10° N
Cosmos 1862 3.2 06:26:41 10° NNW 06:30:37 64° W 06:34:31 10° S
Cosmos 2016 Rocket 4.0 06:25:36 10° NNW 06:31:46 65° W 06:37:59 10° S
Cosmos 1943 3.8 06:28:03 10° SW 06:33:10 36° WNW 06:38:21 10° N
Cosmos 482 Debris 3.8 06:31:56 10° NW 06:33:36 32° NE 06:35:24 10° ESE
Cosmos 676 Rocket 4.2 06:29:24 10° SW 06:34:35 53° WNW 06:39:49 10° N
STARLINK-1098 3.8 06:30:58 10° WSW 06:34:53 52° NW 06:38:49 10° NE
STARLINK-1123 3.9 06:35:36 10° WSW 06:39:29 48° NNW 06:43:23 10° NE
SMAP 3.3 06:35:02 10° NNE 06:39:42 81° ESE 06:44:21 10° S
